Weather History for KAPC - November, 2010

Change the Weather History Date:

Saturday, November 13, 2010

  Actual Average Record
Temperature  
Mean Temperature 54 °F 52 °F  
Max Temperature 71 °F 65 °F 80 °F (1999)
Min Temperature 37 °F 39 °F 30 °F (2000)
Degree Days  
Heating Degree Days 11    
Month to date heating degree days 118  
Since 1 July heating degree days 472  
Cooling Degree Days 0    
Month to date cooling degree days 1  
Year to date cooling degree days 182  
Growing Degree Days 4 (Base 50)    
Moisture  
Dew Point 41 °F    
Average Humidity 62    
Maximum Humidity 93    
Minimum Humidity 31    
Precipitation  
Precipitation 0.00 in - 1.71 in (1984)
Month to date precipitation 0.57  
Year to date precipitation 20.07  
Since 1 July precipitation 2.73  
Sea Level Pressure  
Sea Level Pressure 30.23 in    
Wind  
Wind Speed 6 mph (South)    
Max Wind Speed 17 mph    
Max Gust Speed 20 mph    
Visibility 10 miles    
Events      
T = Trace of Precipitation, MM = Missing Value Source: NWS Daily Summary

Daily Weather History Graph

Daily Weather History Graph

Search for Another Location

Airport or City:

Trip Planner

Search our weather history database for the weather conditions in past years. The results will help you decide how hot, cold, wet, or windy it might be!

Date:

Astronomy

Nov. 13, 2010 Rise Set
Actual Time 6:48 AM PST 4:58 PM PST
Civil Twilight 6:20 AM PST 5:26 PM PST
Nautical Twilight 5:48 AM PST 5:58 PM PST
Astronomical Twilight 5:17 AM PST 6:29 PM PST
Moon 12:47 PM PST (11/13) No Moon Set
Length of Visible Light 11h 06m
Length of Day
10h 10m
First Quarter, 51% of the Moon is Illuminated
Nov 13
First Quarter
Nov 21
Full
Nov 28
Last Quarter
Dec 5
New
Dec 13
First Quarter

Hourly Weather History & Observations

Time (PST) Temp. Windchill Dew Point Humidity Pressure Visibility Wind Dir Wind Speed Gust Speed Precip Events Conditions
12:54 AM 52.0 °F - 41.0 °F 66% 30.32 in 10.0 mi SE 3.5 mph - N/A   Clear
1:54 AM 44.1 °F 42.5 °F 39.0 °F 82% 30.32 in 10.0 mi SSW 3.5 mph - N/A   Clear
2:54 AM 45.0 °F 41.2 °F 42.1 °F 90% 30.30 in 10.0 mi SSE 6.9 mph - N/A   Clear
3:54 AM 43.0 °F 38.2 °F 37.9 °F 82% 30.30 in 10.0 mi SE 8.1 mph - N/A   Clear
4:54 AM 45.0 °F - 42.1 °F 90% 30.30 in 10.0 mi Calm Calm - N/A   Clear
5:54 AM 37.0 °F 32.4 °F 35.1 °F 93% 30.29 in 10.0 mi ESE 5.8 mph - N/A   Clear
6:54 AM 39.9 °F 36.7 °F 37.0 °F 89% 30.30 in 10.0 mi East 4.6 mph - N/A   Clear
7:54 AM 50.0 °F - 45.0 °F 83% 30.32 in 10.0 mi Variable 4.6 mph - N/A   Clear
8:54 AM 55.9 °F - 45.0 °F 67% 30.31 in 10.0 mi South 4.6 mph - N/A   Clear
9:54 AM 61.0 °F - 39.0 °F 44% 30.30 in 10.0 mi SSE 5.8 mph - N/A   Clear
10:54 AM 62.1 °F - 42.1 °F 48% 30.28 in 10.0 mi SSW 6.9 mph - N/A   Clear
11:54 AM 66.0 °F - 39.0 °F 37% 30.25 in 10.0 mi South 9.2 mph - N/A   Scattered Clouds
12:54 PM 69.1 °F - 37.0 °F 31% 30.23 in 10.0 mi South 6.9 mph - N/A   Clear
1:54 PM 70.0 °F - 39.9 °F 33% 30.21 in 10.0 mi SW 9.2 mph - N/A   Clear
2:54 PM 70.0 °F - 39.9 °F 33% 30.18 in 10.0 mi SW 5.8 mph - N/A   Clear
3:54 PM 69.1 °F - 39.9 °F 35% 30.17 in 10.0 mi WSW 4.6 mph - N/A   Scattered Clouds
4:54 PM 64.0 °F - 42.1 °F 45% 30.17 in 10.0 mi ESE 3.5 mph - N/A   Clear
5:54 PM 63.0 °F - 39.0 °F 41% 30.17 in 10.0 mi NNE 5.8 mph - N/A   Clear
6:54 PM 61.0 °F - 41.0 °F 48% 30.16 in 10.0 mi Calm Calm - N/A   Clear
7:54 PM 63.0 °F - 42.1 °F 46% 30.15 in 10.0 mi NNW 8.1 mph - N/A   Clear
8:54 PM 64.9 °F - 42.1 °F 43% 30.14 in 10.0 mi West 8.1 mph - N/A   Clear
9:54 PM 64.9 °F - 42.1 °F 43% 30.14 in 10.0 mi West 3.5 mph - N/A   Clear
10:54 PM 62.1 °F - 45.0 °F 53% 30.13 in 10.0 mi WNW 6.9 mph - N/A   Clear
11:54 PM 66.9 °F - 45.0 °F 45% 30.10 in 10.0 mi North 15.0 mph - N/A   Clear